Temp
-4 -5 -5 -5 -4 -4 -4 -5 -5 -5 -6 -6 -6 -6 -6 -6 -7 -7 -7 -7 -7 -7 -7 -7 -7 -7 -6 -6 -6 -6 -6 -6 -6 -6 -6 -6 -6 -6 -6 -6 -6 -6 -7 -7 -6 -6 -7 -7 -7
-5 -5 -4 -4 -5 -4 -5 -5 -5 -5 -5 -6 -6 -6 -6 -6 -7 -7 -7 -7 -7 -7 -7 -7 -7 -7 -6 -6 -6 -6 -6 -6 -6 -6 -6 -6 -6 -6 -6 -7 -6 -7 -6 -6 -7 -7 -7 -7 -7
-5 -5 -4 -4 -4 -5 -5 -5 -5 -6 -6 -6 -6 -6 -6 -7 -7 -7 -7 -7 -8 -8 -7 -7 -7 -7 -7 -6 -6 -6 -6 -6 -6 -6 -6 -6 -6 -6 -6 -6 -6 -7 -6 -6 -7 -7 -7 -7 -7
-5 -5 -5 -5 -5 -5 -5 -5 -5 -6 -6 -6 -6 -6 -7 -7 -7 -7 -8 -9 -9 -9 -8 -7 -7 -7 -6 -6 -6 -6 -6 -6 -6 -6 -6 -6 -6 -6 -6 -6 -6 -6 -6 -6 -6 -7 -7 -7 -7
-5 -5 -5 -5 -4 -4 -5 -5 -6 -6 -6 -7 -7 -7 -7 -7 -7 -8 -8 -9 -8 -7 -7 -7 -6 -6 -6 -6 -6 -6 -6 -6 -6 -6 -6 -6 -6 -6 -6 -6 -6 -6 -6 -6 -6 -7 -7 -7 -8
-5 -5 -5 -5 -4 -5 -5 -5 -6 -6 -6 -7 -7 -7 -7 -8 -8 -8 -8 -8 -7 -7 -7 -6 -6 -6 -6 -6 -6 -6 -6 -6 -6 -6 -6 -6 -6 -6 -6 -6 -6 -6 -6 -6 -7 -7 -6 -7 -7
-4 -5 -5 -4 -5 -5 -5 -6 -6 -6 -7 -7 -7 -7 -7 -8 -8 -8 -8 -8 -7 -7 -7 -6 -6 -6 -6 -6 -6 -6 -6 -5 -6 -5 -5 -5 -5 -5 -6 -6 -6 -7 -7 -6 -7 -7 -8 -8 -8
-5 -5 -5 -5 -5 -5 -6 -6 -6 -6 -6 -6 -7 -7 -6 -6 -7 -7 -8 -8 -7 -7 -7 -7 -6 -6 -6 -6 -6 -6 -6 -5 -5 -5 -5 -6 -6 -6 -6 -6 -6 -6 -7 -7 -7 -7 -7 -7 -8
-4 -4 -4 -5 -6 -5 -5 -6 -6 -6 -6 -6 -6 -7 -6 -6 -6 -7 -7 -7 -7 -7 -7 -6 -6 -6 -6 -6 -6 -6 -5 -5 -5 -5 -6 -6 -6 -6 -6 -6 -6 -6 -6 -7 -7 -7 -7 -8 -7
-5 -4 -4 -5 -5 -6 -5 -5 -6 -6 -5 -6 -6 -6 -6 -6 -6 -6 -6 -6 -6 -6 -7 -7 -6 -6 -6 -6 -6 -6 -6 -5 -5 -6 -6 -6 -6 -6 -6 -7 -7 -6 -6 -6 -7 -7 -7 -7 -7
-4 -4 -4 -5 -5 -5 -4 -5 -6 -5 -6 -6 -6 -6 -6 -6 -6 -6 -6 -6 -6 -6 -7 -7 -7 -6 -6 -6 -6 -6 -6 -6 -6 -5 -5 -5 -6 -6 -7 -7 -7 -6 -7 -7 -7 -7 -7 -7 -7
-4 -4 -5 -5 -5 -5 -4 -5 -6 -6 -6 -5 -5 -6 -6 -6 -5 -6 -5 -6 -6 -6 -6 -6 -6 -6 -6 -7 -6 -6 -6 -6 -6 -5 -6 -6 -6 -6 -6 -7 -7 -7 -7 -7 -7 -7 -7 -7 -7
-4 -4 -4 -5 -5 -4 -5 -6 -6 -6 -6 -6 -6 -5 -6 -5 -5 -6 -5 -5 -5 -6 -6 -6 -6 -6 -6 -6 -7 -6 -6 -7 -6 -6 -6 -6 -6 -7 -6 -7 -7 -7 -7 -7 -7 -7 -7 -7 -7
-5 -4 -4 -4 -4 -4 -5 -5 -6 -6 -6 -6 -6 -6 -6 -6 -5 -6 -6 -6 -5 -5 -5 -6 -6 -6 -6 -6 -6 -6 -6 -7 -7 -6 -6 -6 -7 -7 -7 -7 -7 -7 -7 -6 -7 -7 -7 -7 -7
-4 -5 -4 -4 -4 -5 -5 -6 -6 -6 -6 -6 -5 -5 -6 -6 -6 -6 -6 -6 -5 -5 -6 -6 -6 -6 -5 -6 -6 -5 -6 -6 -6 -6 -6 -6 -6 -6 -6 -6 -7 -6 -7 -6 -6 -6 -6 -6 -6
-5 -4 -4 -5 -6 -5 -5 -5 -5 -5 -4 -5 -5 -5 -6 -6 -6 -6 -6 -5 -5 -5 -5 -5 -6 -6 -6 -6 -6 -5 -5 -5 -6 -6 -5 -5 -5 -6 -6 -6 -6 -6 -6 -6 -7 -6 -6 -6 -6
-6 -5 -6 -6 -6 -6 -6 -5 -5 -5 -5 -4 -5 -4 -5 -6 -6 -6 -5 -4 -4 -5 -5 -5 -5 -5 -5 -5 -6 -5 -6 -6 -6 -6 -6 -6 -6 -6 -6 -6 -6 -6 -6 -6 -7 -7 -7 -6 -6
-6 -5 -6 -6 -6 -6 -6 -5 -5 -5 -5 -4 -5 -5 -4 -5 -5 -5 -6 -5 -5 -4 -5 -5 -5 -5 -5 -5 -5 -5 -5 -5 -5 -5 -5 -5 -6 -6 -6 -6 -6 -6 -6 -6 -6 -6 -7 -6 -6
-6 -6 -5 -6 -6 -6 -6 -5 -6 -5 -5 -5 -5 -5 -6 -5 -4 -5 -5 -5 -5 -5 -4 -4 -5 -5 -5 -4 -4 -5 -5 -5 -5 -5 -5 -5 -5 -5 -5 -5 -6 -6 -6 -6 -6 -6 -6 -6 -6
-6 -6 -5 -5 -5 -6 -6 -6 -6 -6 -5 -5 -5 -5 -5 -5 -5 -5 -5 -4 -5 -5 -5 -5 -4 -4 -5 -5 -5 -5 -5 -5 -5 -5 -6 -6 -5 -5 -5 -5 -6 -6 -7 -7 -6 -6 -6 -6 -7
-6 -6 -5 -5 -5 -6 -6 -5 -6 -6 -5 -5 -5 -5 -4 -5 -5 -5 -5 -5 -6 -6 -6 -5 -5 -5 -5 -5 -5 -5 -6 -5 -5 -5 -6 -6 -7 -7 -6 -6 -6 -6 -7 -6 -6 -7 -7 -7 -6
-7 -6 -7 -6 -6 -6 -6 -6 -6 -6 -5 -6 -6 -4 -5 -5 -6 -6 -5 -6 -6 -7 -6 -6 -6 -5 -5 -5 -6 -6 -5 -5 -6 -6 -6 -6 -7 -7 -7 -7 -7 -7 -6 -7 -7 -7 -7 -7 -7
-6 -7 -6 -6 -6 -6 -7 -6 -6 -6 -6 -5 -5 -5 -5 -5 -6 -5 -5 -6 -6 -6 -6 -6 -6 -6 -6 -6 -6 -6 -6 -7 -7 -6 -7 -7 -7 -7 -7 -7 -7 -7 -7 -7 -6 -6 -6 -6 -6
-6 -7 -7 -7 -6 -6 -7 -6 -6 -6 -6 -5 -5 -5 -5 -6 -6 -6 -5 -6 -6 -6 -6 -6 -7 -7 -6 -7 -7 -7 -7 -7 -7 -6 -7 -7 -7 -7 -7 -7 -7 -7 -7 -7 -6 -6 -6 -6 -5
-7 -7 -7 -6 -7 -7 -7 -7 -7 -7 -6 -6 -5 -6 -5 -6 -7 -7 -7 -7 -8 -7 -7 -7 -7 -7 -7 -7 -7 -7 -7 -7 -7 -7 -7 -7 -7 -8 -7 -7 -7 -7 -8 -8 -7 -6 -6 -6 -5
-8 -8 -8 -8 -8 -8 -7 -7 -7 -7 -8 -7 -7 -6 -5 -5 -7 -6 -7 -7 -6 -6 -6 -6 -7 -7 -7 -7 -7 -7 -8 -8 -7 -6 -7 -7 -8 -8 -8 -8 -8 -8 -8 -8 -8 -8 -7 -7 -6
-8 -8 -8 -8 -7 -8 -7 -7 -7 -8 -8 -7 -8 -7 -7 -6 -7 -7 -7 -6 -6 -6 -6 -6 -6 -7 -6 -7 -6 -7 -6 -6 -7 -7 -7 -8 -8 -9 -9 -9 -9 -9 -9 -9 -9 -9 -8 -8 -7
-8 -8 -8 -8 -8 -8 -7 -8 -8 -8 -8 -8 -8 -8 -8 -7 -6 -7 -7 -6 -6 -6 -6 -6 -6 -7 -7 -8 -7 -7 -5 -7 -7 -8 -9 -9 -9 -9 -10 -10 -10 -10 -10 -10 -10 -10 -9 -9 -8
-9 -9 -9 -9 -9 -9 -8 -8 -8 -8 -8 -8 -8 -8 -8 -8 -7 -7 -7 -6 -6 -6 -5 -6 -7 -6 -8 -5 -7 -7 -8 -8 -9 -9 -9 -9 -9 -9 -10 -10 -10 -11 -11 -11 -11 -11 -10 -10 -9
-9 -9 -9 -9 -9 -9 -9 -9 -8 -8 -8 -8 -8 -8 -8 -8 -9 -8 -7 -6 -6 -6 -5 -6 -8 -8 -8 -8 -8 -8 -8 -8 -8 -9 -9 -9 -9 -9 -9 -10 -10 -10 -11 -11 -11 -11 -11 -10 -10
Height
5900 5901 5901 5901 5904 5903 5902 5902 5900 5900 5900 5901 5900 5897 5897 5896 5896 5899 5897 5897 5897 5897 5897 5897 5897 5898 5898 5897 5897 5898 5899 5900 5900 5900 5900 5900 5901 5902 5902 5901 5900 5900 5899 5899 5899 5898 5898 5896 5896
5901 5902 5904 5904 5904 5903 5907 5904 5902 5903 5904 5903 5901 5900 5899 5899 5898 5898 5898 5898 5898 5899 5898 5898 5898 5899 5900 5900 5900 5900 5901 5902 5902 5902 5903 5903 5904 5905 5905 5904 5903 5904 5903 5903 5903 5902 5902 5901 5899
5901 5903 5906 5904 5905 5904 5906 5905 5903 5904 5905 5903 5901 5900 5900 5900 5899 5899 5899 5899 5900 5900 5899 5899 5900 5900 5901 5901 5901 5902 5904 5905 5905 5906 5906 5907 5909 5910 5910 5909 5908 5907 5906 5907 5906 5905 5903 5902 5901
5905 5906 5907 5907 5908 5907 5907 5908 5907 5905 5905 5903 5902 5901 5901 5901 5900 5900 5900 5900 5899 5900 5900 5901 5901 5902 5902 5903 5904 5906 5907 5908 5909 5909 5909 5911 5913 5913 5914 5914 5915 5914 5912 5910 5909 5908 5907 5906 5904
5907 5908 5908 5909 5909 5908 5907 5909 5910 5908 5907 5905 5903 5901 5900 5900 5901 5901 5901 5901 5903 5902 5902 5902 5903 5904 5905 5907 5908 5910 5910 5911 5911 5912 5912 5915 5917 5917 5918 5918 5919 5919 5916 5915 5913 5912 5910 5909 5908
5908 5909 5910 5910 5911 5909 5908 5910 5910 5909 5908 5905 5904 5903 5902 5902 5903 5902 5902 5903 5904 5903 5902 5903 5903 5905 5908 5911 5912 5913 5913 5913 5914 5915 5917 5918 5919 5919 5920 5923 5924 5923 5920 5919 5917 5916 5915 5914 5913
5911 5911 5912 5912 5911 5912 5912 5913 5912 5911 5910 5908 5907 5904 5904 5904 5904 5903 5903 5904 5904 5903 5903 5904 5906 5908 5911 5913 5913 5914 5913 5914 5916 5918 5920 5922 5924 5925 5926 5926 5927 5927 5925 5924 5923 5920 5918 5917 5917
5913 5912 5913 5914 5912 5914 5916 5916 5914 5915 5914 5911 5909 5908 5906 5904 5904 5903 5904 5905 5905 5905 5905 5906 5908 5910 5913 5914 5915 5916 5916 5918 5920 5922 5924 5926 5928 5929 5929 5928 5929 5929 5927 5925 5925 5923 5923 5920 5920
5914 5915 5915 5914 5913 5915 5918 5917 5916 5917 5917 5913 5914 5911 5908 5907 5906 5905 5906 5906 5907 5907 5907 5908 5910 5912 5913 5915 5917 5918 5919 5921 5923 5927 5928 5929 5930 5931 5930 5930 5930 5930 5930 5928 5926 5925 5925 5923 5922
5916 5917 5916 5915 5914 5918 5918 5919 5918 5918 5915 5914 5916 5914 5911 5911 5909 5908 5908 5908 5909 5909 5910 5910 5912 5914 5915 5917 5919 5921 5923 5924 5926 5928 5929 5930 5931 5932 5931 5932 5931 5930 5930 5931 5929 5927 5926 5925 5924
5917 5916 5914 5913 5914 5916 5918 5918 5917 5917 5915 5917 5919 5916 5914 5913 5912 5911 5910 5910 5910 5911 5912 5912 5914 5914 5916 5918 5920 5922 5924 5925 5927 5928 5929 5930 5932 5933 5932 5931 5930 5930 5930 5931 5931 5930 5928 5926 5925
5919 5916 5915 5912 5916 5918 5918 5920 5919 5918 5917 5918 5918 5918 5917 5916 5914 5913 5914 5913 5913 5913 5914 5915 5916 5916 5917 5920 5921 5922 5924 5925 5927 5927 5930 5931 5932 5933 5932 5932 5931 5929 5930 5931 5930 5931 5932 5928 5926
5918 5917 5916 5916 5917 5919 5917 5918 5920 5919 5918 5917 5918 5919 5918 5918 5917 5915 5915 5916 5916 5916 5915 5916 5917 5918 5919 5920 5922 5924 5926 5927 5928 5929 5931 5932 5933 5932 5932 5933 5933 5931 5931 5930 5929 5930 5932 5930 5928
5919 5919 5918 5918 5918 5918 5919 5919 5920 5918 5917 5917 5917 5917 5917 5917 5917 5916 5916 5917 5918 5919 5918 5919 5919 5919 5919 5922 5923 5923 5924 5926 5927 5929 5932 5933 5933 5934 5933 5934 5934 5933 5932 5931 5930 5930 5928 5930 5929
5922 5921 5920 5919 5918 5919 5921 5921 5918 5918 5918 5917 5916 5916 5916 5916 5918 5918 5919 5918 5918 5919 5919 5920 5921 5922 5921 5922 5924 5925 5926 5927 5929 5931 5932 5933 5934 5934 5934 5934 5934 5933 5932 5931 5931 5929 5928 5928 5929
5923 5920 5921 5920 5919 5920 5922 5919 5918 5917 5918 5917 5916 5916 5917 5916 5918 5920 5921 5921 5920 5918 5919 5922 5921 5922 5922 5922 5924 5926 5926 5927 5929 5930 5933 5935 5935 5935 5934 5933 5933 5933 5933 5932 5930 5928 5927 5927 5926
5920 5920 5921 5921 5921 5921 5920 5919 5919 5919 5918 5918 5918 5918 5917 5915 5914 5918 5919 5919 5919 5919 5918 5920 5923 5924 5924 5922 5924 5926 5926 5926 5928 5930 5932 5934 5934 5934 5934 5934 5934 5934 5933 5932 5931 5930 5927 5924 5924
5920 5922 5919 5918 5920 5920 5919 5918 5918 5919 5918 5917 5916 5918 5919 5918 5916 5915 5916 5916 5916 5919 5920 5920 5923 5924 5926 5925 5924 5923 5924 5925 5928 5929 5930 5930 5931 5933 5933 5933 5931 5931 5930 5930 5930 5929 5926 5923 5921
5919 5919 5919 5917 5918 5917 5918 5918 5918 5919 5917 5916 5915 5915 5918 5920 5919 5914 5913 5913 5913 5914 5916 5917 5917 5919 5921 5924 5922 5920 5921 5923 5923 5923 5924 5926 5928 5929 5930 5930 5930 5929 5928 5926 5925 5925 5922 5918 5915
5919 5919 5918 5917 5915 5916 5917 5918 5919 5918 5917 5916 5914 5914 5915 5917 5916 5914 5911 5912 5913 5912 5913 5915 5916 5917 5917 5918 5919 5920 5921 5921 5921 5919 5918 5918 5923 5924 5923 5922 5922 5921 5921 5918 5919 5918 5916 5914 5911
5917 5917 5915 5915 5915 5916 5917 5915 5917 5919 5918 5914 5912 5911 5912 5914 5914 5911 5911 5908 5909 5911 5911 5911 5912 5914 5916 5915 5916 5917 5915 5916 5917 5918 5918 5916 5913 5913 5914 5915 5915 5913 5914 5910 5909 5909 5910 5909 5908
5918 5917 5916 5915 5914 5914 5915 5915 5915 5916 5914 5912 5910 5909 5910 5909 5912 5910 5908 5910 5908 5910 5910 5910 5910 5911 5914 5915 5914 5915 5915 5913 5912 5912 5912 5912 5910 5909 5909 5910 5909 5910 5909 5907 5905 5903 5903 5901 5902
5919 5918 5918 5916 5914 5914 5913 5916 5915 5913 5913 5911 5910 5908 5907 5907 5909 5909 5906 5907 5907 5907 5906 5910 5913 5910 5910 5912 5912 5911 5911 5909 5907 5907 5907 5907 5907 5906 5903 5903 5904 5904 5902 5902 5900 5898 5898 5898 5898
5918 5917 5915 5916 5914 5913 5911 5911 5912 5911 5910 5910 5908 5905 5904 5903 5906 5903 5903 5904 5906 5907 5905 5905 5908 5911 5909 5907 5906 5904 5903 5902 5902 5902 5902 5902 5901 5901 5900 5899 5898 5898 5897 5896 5895 5893 5891 5892 5889
5915 5914 5912 5911 5909 5909 5907 5905 5907 5906 5906 5905 5904 5902 5900 5898 5900 5898 5896 5900 5902 5903 5901 5903 5903 5906 5904 5903 5902 5900 5899 5897 5895 5895 5895 5896 5895 5892 5894 5894 5893 5891 5890 5889 5888 5886 5885 5884 5883
5912 5911 5907 5906 5906 5906 5903 5901 5901 5902 5901 5901 5900 5898 5897 5896 5895 5894 5898 5899 5899 5900 5898 5897 5897 5899 5897 5895 5896 5894 5892 5883 5881 5886 5886 5886 5887 5888 5887 5885 5885 5884 5883 5881 5880 5879 5877 5875 5874
5910 5908 5907 5903 5902 5899 5900 5898 5896 5895 5896 5897 5896 5895 5895 5895 5894 5896 5896 5897 5897 5898 5898 5894 5891 5892 5893 5890 5889 5888 5887 5867 5877 5879 5879 5880 5881 5881 5879 5878 5876 5875 5874 5873 5872 5871 5869 5866 5865
5906 5905 5903 5900 5897 5894 5894 5891 5889 5891 5891 5892 5893 5892 5892 5893 5892 5891 5893 5894 5894 5893 5891 5889 5889 5887 5883 5883 5883 5881 5862 5866 5869 5870 5874 5876 5876 5875 5872 5870 5868 5867 5866 5865 5864 5863 5860 5856 5854
5900 5898 5896 5895 5892 5887 5886 5888 5884 5885 5884 5884 5885 5885 5886 5885 5887 5888 5889 5890 5890 5888 5886 5887 5882 5879 5875 5841 5872 5867 5866 5865 5865 5865 5866 5866 5867 5866 5864 5862 5860 5859 5857 5855 5854 5851 5849 5847 5845
5894 5891 5890 5888 5888 5884 5879 5881 5880 5879 5878 5877 5878 5878 5878 5879 5880 5882 5885 5887 5885 5882 5882 5881 5877 5871 5863 5856 5863 5865 5862 5860 5862 5861 5860 5859 5859 5858 5856 5854 5852 5849 5846 5844 5843 5841 5840 5838 5835
Wind_Speed
5 6 4 4 11 12 13 11 13 13 13 9 7 8 7 6 4 5 6 5 7 5 4 4 3 3 4 4 4 5 6 9 9 11 14 16 17 16 16 17 17 16 19 19 19 17 18 20 21
2 3 4 9 14 19 13 10 12 13 12 11 10 8 7 6 5 4 6 6 6 3 4 4 3 4 5 5 5 6 7 8 8 11 14 16 15 14 15 17 17 19 20 21 21 21 20 19 18
9 3 7 11 10 20 16 10 11 11 11 11 10 11 10 8 5 4 6 6 4 1 3 3 4 6 6 6 6 7 8 9 10 12 14 14 13 13 14 16 17 19 21 22 22 24 24 23 21
12 9 6 9 12 14 13 10 9 11 10 11 11 12 12 10 7 5 6 4 4 3 5 4 6 7 6 7 7 8 9 9 10 12 14 13 12 13 14 15 15 17 19 18 19 19 21 22 21
9 15 11 9 11 13 12 11 10 10 9 10 11 12 13 11 7 7 6 4 6 4 3 3 6 7 6 7 8 9 10 9 11 12 13 12 11 12 12 14 13 17 16 15 18 20 19 20 24
11 13 10 10 13 13 12 10 11 11 11 12 12 11 13 11 8 7 6 6 7 4 3 7 9 9 8 8 9 10 9 8 11 11 11 10 11 10 10 12 12 15 15 15 15 15 16 18 18
13 8 7 10 14 12 12 10 10 11 10 11 11 13 10 9 9 8 8 11 9 11 10 12 13 11 10 11 10 11 9 9 10 11 9 9 10 11 12 12 11 13 12 12 13 13 15 15 16
9 7 4 6 17 13 13 10 12 9 9 13 11 12 11 13 12 10 10 12 14 15 15 17 16 15 16 13 11 10 9 9 10 9 9 10 12 13 12 9 9 9 9 9 10 10 12 11 16
8 6 7 11 13 13 10 10 8 6 9 14 11 12 13 14 16 13 12 14 15 17 18 20 21 20 17 14 13 11 9 9 9 10 10 10 10 9 7 7 6 5 7 7 7 10 11 11 13
5 5 7 12 13 8 10 9 6 4 10 11 9 11 12 12 16 14 13 16 16 18 18 19 19 19 17 13 11 11 11 9 9 10 8 6 5 5 4 5 4 5 4 4 7 14 9 7 7
3 5 5 7 11 8 10 9 3 3 9 7 9 11 12 11 12 15 13 15 17 17 16 18 16 18 16 14 12 11 10 11 11 8 6 5 5 5 5 5 6 6 2 5 7 6 7 7 7
3 5 7 8 11 5 6 8 8 8 8 6 11 11 10 11 11 12 13 13 15 17 16 16 14 14 15 12 11 12 11 11 9 9 9 7 7 8 4 6 11 11 2 4 6 9 7 6 9
6 7 6 8 5 4 4 13 5 7 7 8 9 10 9 10 11 10 9 12 10 12 16 16 15 10 13 13 11 10 11 10 10 9 9 7 5 7 6 7 5 7 8 9 6 6 4 4 5
12 3 3 5 3 4 5 6 3 4 6 5 4 6 9 7 9 9 6 7 11 10 8 12 13 10 12 12 11 11 12 12 9 8 10 7 7 6 6 8 6 6 6 5 7 9 10 7 5
9 5 1 4 6 5 5 3 3 4 5 6 0 4 6 9 5 7 4 5 6 9 7 8 9 10 11 12 9 8 5 7 6 5 6 5 3 1 1 3 5 6 8 9 9 11 10 11 8
6 4 3 7 6 4 2 5 2 3 5 5 1 3 4 6 7 4 7 9 8 7 8 7 6 7 7 7 6 5 4 5 3 0 1 1 1 2 4 5 8 9 10 12 12 15 14 14 16
7 5 4 8 6 8 10 7 8 3 7 6 5 1 2 6 7 3 5 7 8 8 7 6 5 3 6 8 7 6 4 3 3 3 3 3 5 7 8 9 10 12 12 11 13 15 19 18 16
14 6 4 5 5 5 9 13 7 4 7 10 7 7 5 7 8 8 4 5 8 8 8 7 5 6 5 5 6 6 4 3 6 7 6 7 6 6 6 8 12 14 13 14 15 15 19 20 17
6 8 8 3 3 4 10 12 11 8 9 6 5 4 7 9 9 9 8 6 8 10 10 9 10 8 7 9 8 7 6 7 9 8 8 8 8 9 9 9 10 12 12 15 16 17 19 18 19
2 2 10 12 6 4 7 8 6 7 7 7 2 2 5 9 12 12 11 6 4 4 8 9 7 7 7 9 11 10 10 11 11 12 11 12 12 14 14 14 16 17 18 22 23 21 19 19 21
6 4 3 2 4 5 9 14 4 12 10 5 3 10 16 15 12 11 11 10 8 7 7 7 7 6 7 7 8 10 10 12 14 13 13 12 13 13 16 17 19 17 17 20 25 23 18 23 16
1 3 2 9 6 5 11 9 11 4 3 5 11 8 11 14 17 12 10 10 8 9 7 6 5 5 6 6 6 10 13 14 14 13 11 10 9 12 13 10 21 25 27 29 26 19 22 23 13
9 11 13 14 14 12 12 9 6 9 10 9 7 7 9 6 20 18 16 13 12 11 9 6 8 9 10 10 11 13 15 14 15 15 10 9 12 14 13 18 23 23 20 22 23 20 25 20 21
10 14 9 14 17 18 17 21 17 13 16 18 14 13 9 12 19 26 23 15 12 11 10 8 7 12 13 12 15 17 16 18 21 17 15 12 15 19 23 23 21 23 26 27 25 21 19 25 24
18 21 20 14 14 16 19 23 21 20 19 21 18 13 10 8 15 36 29 19 14 12 14 13 9 14 14 16 18 19 22 25 24 24 20 18 20 22 21 23 25 25 25 26 25 22 21 26 25
22 20 14 15 14 16 16 21 18 15 19 21 17 12 9 4 4 2 18 4 6 16 19 21 13 19 21 23 18 21 22 35 16 9 13 18 23 22 26 28 28 29 29 26 23 22 24 26 27
22 19 20 23 23 23 22 14 11 16 19 19 13 12 9 2 8 3 8 12 14 10 19 19 14 14 22 22 18 20 26 28 15 17 16 17 24 26 28 30 29 29 28 26 25 29 30 35 37
27 26 25 24 29 29 25 18 15 19 18 20 16 16 17 10 8 6 13 19 13 14 13 16 20 20 26 20 18 21 26 26 27 27 26 25 27 29 32 31 30 31 30 28 28 33 34 37 41
32 27 25 30 30 31 31 28 26 23 27 27 24 24 21 20 12 12 16 23 24 23 22 24 25 31 34 32 23 28 31 31 30 32 31 30 30 31 32 32 33 34 32 31 31 33 37 39 44
34 32 34 35 30 29 33 31 31 27 31 36 35 30 30 28 25 23 24 22 24 23 24 22 26 28 32 25 27 29 29 31 33 32 30 30 32 33 32 32 35 38 39 37 35 33 32 37 42
Wind_Direction
109 120 74 107 95 91 84 95 91 88 88 89 72 61 61 63 91 130 125 136 137 146 147 138 144 136 113 105 97 104 104 111 104 96 87 87 89 94 94 95 90 83 79 78 82 89 85 83 81
91 96 102 117 99 90 82 85 84 82 84 84 65 59 44 71 86 100 116 123 113 146 150 132 133 126 119 119 122 103 109 119 103 94 92 91 93 95 97 100 91 85 83 78 77 73 83 87 74
233 136 121 93 98 88 82 60 75 84 78 63 48 38 37 44 71 79 108 104 109 119 145 151 116 115 131 133 115 117 126 122 105 100 97 96 94 92 96 100 98 96 93 81 78 82 91 87 83
113 132 112 99 84 83 85 75 68 86 59 46 31 37 31 44 67 86 98 102 91 77 106 119 112 108 116 118 116 125 128 119 113 106 100 97 97 99 104 96 91 91 88 84 81 85 79 81 73
142 125 96 80 83 90 84 82 95 78 61 46 34 31 30 26 48 74 83 74 107 88 76 96 113 127 133 116 112 120 129 122 122 111 105 105 104 103 105 100 101 98 95 84 80 82 78 77 78
145 124 95 81 88 97 89 88 78 64 50 40 33 26 35 14 24 84 89 96 110 98 116 119 130 143 129 107 103 118 126 126 124 111 108 111 107 104 97 87 87 88 88 85 87 77 63 60 57
134 93 86 81 77 96 92 87 76 57 54 41 28 27 37 27 36 72 98 99 86 103 101 100 107 132 115 110 113 125 134 131 123 115 115 107 93 76 67 64 75 86 80 74 80 72 74 56 43
84 55 108 105 73 99 105 87 61 43 60 53 33 29 44 50 61 78 90 92 99 101 101 101 107 111 113 116 115 122 125 129 123 110 97 81 73 68 69 63 58 71 82 71 68 71 81 65 57
101 79 113 88 79 76 58 68 68 23 51 59 42 32 44 51 75 82 93 93 106 108 103 103 105 109 108 110 117 123 116 115 118 92 89 85 81 76 57 36 35 48 71 67 57 62 55 40 36
127 95 104 119 88 82 86 81 63 35 45 49 54 57 54 47 73 89 95 106 116 113 109 107 107 107 109 111 112 104 98 96 104 110 114 106 83 66 43 28 8 4 25 67 41 41 47 51 46
58 110 132 117 101 80 81 78 78 29 47 29 58 66 69 71 64 84 104 112 114 113 111 109 114 119 117 117 120 120 113 109 110 121 135 104 75 50 35 353 315 305 298 49 40 21 27 44 24
133 93 55 210 66 55 83 75 13 7 28 31 59 65 66 80 74 78 82 108 118 114 110 106 110 118 117 117 123 129 120 120 115 127 113 92 78 61 13 316 41 24 92 52 42 40 48 28 7
188 82 82 63 45 64 117 92 69 360 13 20 25 72 71 80 100 91 76 90 117 122 126 124 117 120 120 117 115 110 107 112 114 110 82 98 59 358 222 8 23 36 47 19 22 8 76 61 24
165 80 105 122 143 63 44 29 41 35 358 353 30 56 85 65 76 94 87 92 95 122 118 118 123 138 127 117 129 134 125 122 108 110 97 79 67 40 66 34 15 3 8 344 339 330 352 10 26
192 119 46 12 2 18 40 63 102 16 339 297 106 69 87 96 79 104 151 136 115 107 103 120 145 164 143 129 140 146 101 133 139 129 109 118 104 84 331 336 318 334 331 321 329 329 334 324 336
261 333 351 5 330 319 124 36 341 322 316 264 256 95 103 100 103 136 176 171 156 142 123 122 140 154 160 147 169 174 172 173 162 256 323 286 304 314 312 303 305 302 303 317 324 320 315 313 315
256 215 269 316 279 279 288 263 19 11 344 16 340 53 185 161 143 180 202 177 173 172 158 148 152 191 180 179 202 206 213 257 269 251 269 301 311 326 320 316 300 299 305 308 307 302 302 307 307
243 243 302 340 260 282 292 282 342 18 351 5 5 338 276 220 180 171 204 176 166 184 190 177 180 192 243 231 229 237 249 272 279 275 286 296 297 292 282 280 293 301 305 303 303 296 292 295 308
229 192 254 224 305 333 279 298 338 324 327 341 5 21 309 254 229 194 198 202 179 179 191 199 186 210 225 257 242 233 231 244 250 261 261 252 261 276 276 296 295 286 286 292 289 288 289 293 306
92 347 279 244 231 225 215 263 348 10 6 347 238 273 284 267 223 219 201 191 225 203 199 200 209 221 229 253 271 260 245 246 248 249 254 274 289 299 306 309 309 302 300 299 297 298 293 296 301
101 65 15 73 213 205 303 244 300 345 358 357 3 246 261 239 228 204 222 197 198 216 214 211 208 211 236 243 279 295 286 273 271 275 283 285 294 311 317 320 329 318 311 326 315 295 292 294 293
124 336 345 307 294 15 347 18 1 13 335 5 336 314 336 267 225 220 216 227 197 206 226 245 232 231 255 282 279 278 289 288 287 285 296 307 305 306 314 299 327 341 307 337 337 315 305 297 300
341 306 299 312 307 307 321 335 12 352 322 332 331 327 326 324 222 225 212 202 206 192 191 230 281 281 264 255 259 272 279 277 276 281 270 273 282 294 310 320 329 334 333 330 327 329 329 321 308
306 309 304 290 287 290 299 303 312 310 302 307 314 313 307 267 248 226 214 200 203 207 206 203 232 271 276 273 276 271 264 263 268 255 261 276 290 299 309 308 313 312 315 317 319 314 296 284 281
321 312 314 315 287 286 283 285 295 302 297 300 313 316 296 277 289 223 200 192 199 224 248 221 230 261 258 270 279 275 275 271 254 244 260 281 285 298 296 301 304 304 307 307 304 303 297 282 277
326 318 310 296 288 284 300 300 290 285 294 300 304 303 294 336 66 308 227 183 240 250 235 241 251 249 256 275 272 273 271 260 233 248 253 273 290 298 300 301 299 301 302 302 285 276 277 274 267
325 320 302 291 287 277 281 295 303 287 285 291 306 290 296 64 107 235 225 232 234 245 235 237 258 253 267 270 264 265 265 263 253 267 289 302 300 295 295 296 298 300 299 296 279 274 270 265 260
309 304 301 300 292 287 277 272 279 289 287 295 293 290 293 261 219 242 268 257 272 294 280 289 277 277 265 250 258 259 262 285 307 306 305 298 293 293 296 298 298 296 294 283 272 266 271 266 263
300 299 291 303 291 285 281 276 276 278 286 289 286 288 283 287 276 256 273 277 290 297 291 286 284 273 274 250 266 261 299 300 294 295 295 296 294 295 295 297 294 292 289 285 280 271 269 267 270
287 282 285 293 284 280 283 282 284 279 282 284 287 292 295 294 289 289 291 280 283 282 277 278 281 289 288 293 286 288 292 291 290 289 290 291 293 294 292 291 292 291 288 286 283 276 271 269 272